Temp
3 3 3 4 5 5 6 6 5 5 5 4 4 4 3 3 3 3 3 4 4 3 5 8 8 8 8 7 7 7 6 6 6 7 8 8 8 10 11 12 11 12 11 11 11 11 12 14 15 16 16 15 14 17
3 3 4 5 5 5 5 5 6 5 5 4 4 4 4 4 4 3 4 4 4 4 5 5 7 8 9 9 8 7 9 7 8 8 7 8 8 7 10 11 10 12 12 13 13 14 14 14 15 15 15 15 15 15
4 4 5 6 5 5 5 5 5 5 5 4 4 4 3 3 4 4 3 4 3 2 4 4 6 7 8 9 10 7 8 9 8 8 7 8 8 8 9 10 11 11 11 12 11 14 14 14 14 12 11 11 12 13
4 5 5 5 5 5 5 5 5 5 5 4 4 4 3 3 3 3 4 4 3 4 5 5 5 6 8 8 9 9 10 9 8 8 7 7 9 9 9 11 11 12 11 12 12 13 12 14 11 9 9 10 10 11
4 4 4 4 4 5 5 5 5 5 5 4 4 4 3 3 3 3 3 3 4 5 4 5 6 6 7 7 8 8 9 8 8 8 7 8 7 9 8 8 10 10 11 11 12 8 8 9 9 8 8 8 8 7
4 4 4 4 5 4 4 4 5 5 5 4 4 4 4 3 3 3 3 3 4 5 4 5 6 6 7 7 8 8 8 8 7 8 7 7 7 9 8 9 8 8 8 7 8 8 8 8 8 6 6 6 6 5
4 4 4 4 4 5 4 5 5 5 5 5 4 4 4 3 3 4 4 4 4 5 4 4 6 6 6 7 7 8 7 7 8 7 7 8 8 9 7 7 6 5 5 5 6 6 8 8 7 5 4 4 4 3
5 4 4 4 4 4 5 5 5 5 5 5 4 4 4 3 4 4 4 4 4 4 5 3 4 6 7 6 6 6 6 6 6 6 6 7 7 8 7 4 4 3 3 5 3 4 3 6 5 4 3 3 2 0
4 4 4 4 4 4 5 5 5 5 5 4 4 3 4 3 4 4 4 5 6 5 4 3 4 6 6 5 5 4 5 6 5 5 6 7 7 5 2 2 2 1 1 1 3 4 4 3 3 1 1 0 0 -1
5 5 4 4 4 4 3 4 5 4 4 3 3 3 3 4 4 4 4 4 4 4 3 4 3 6 5 5 5 5 5 6 7 6 5 5 2 0 -0 -0 -0 -0 -0 1 1 2 1 1 1 -0 -1 -2 -2 -2
4 5 5 5 5 5 5 4 3 4 5 3 3 4 4 5 4 4 4 4 4 4 3 3 3 5 3 6 5 4 6 5 6 6 7 4 2 -0 -1 -1 -2 -2 -2 -1 -1 -1 -1 -2 -2 -2 -3 -3 -4 -4
4 4 5 6 6 5 4 5 6 5 4 4 4 4 3 1 3 4 4 3 5 5 3 5 4 4 3 4 6 5 5 5 6 3 3 0 -1 -1 -1 -2 -3 -3 -3 -3 -3 -3 -3 -3 -4 -4 -4 -5 -6 -7
3 4 5 6 6 6 7 5 5 5 7 6 2 0 2 -1 -1 -1 2 2 3 1 1 2 4 4 4 4 5 6 4 3 2 0 -1 -2 -2 -2 -3 -3 -3 -4 -4 -4 -5 -5 -5 -6 -6 -6 -6 -7 -8 -8
3 3 4 4 4 6 6 8 7 7 4 -1 -2 -4 -5 -5 -3 -2 -2 -1 -0 -0 -0 1 4 3 2 3 2 4 0 1 -0 -1 -2 -3 -3 -4 -4 -4 -4 -5 -6 -6 -6 -7 -7 -7 -7 -8 -8 -9 -9 -10
3 3 3 4 4 4 4 4 5 5 -2 -4 -4 -5 -4 -4 -4 -4 -4 -3 -2 -2 0 3 2 2 0 -0 -1 1 -0 -2 -2 -3 -4 -4 -5 -5 -5 -5 -5 -6 -6 -6 -7 -7 -8 -8 -8 -9 -9 -10 -10 -10
3 3 3 3 3 3 4 3 1 -0 -3 -4 -5 -5 -6 -5 -5 -5 -5 -4 -3 -3 -0 1 1 0 -1 -1 -2 -3 -2 -3 -4 -5 -5 -5 -6 -6 -6 -6 -6 -6 -7 -7 -7 -8 -8 -9 -9 -9 -10 -10 -11 -11
4 3 3 3 3 2 2 1 -1 -3 -4 -4 -6 -7 -8 -7 -7 -6 -7 -5 -4 -1 -1 -1 -1 -2 -1 -2 -4 -4 -5 -5 -5 -6 -7 -7 -7 -7 -7 -7 -8 -8 -8 -8 -8 -8 -9 -9 -10 -10 -10 -11 -11 -12
3 3 3 4 4 3 0 -1 -2 -3 -5 -6 -6 -6 -7 -8 -7 -7 -7 -5 -4 -2 -2 -3 -2 -4 -4 -3 -4 -6 -6 -7 -7 -8 -8 -8 -8 -9 -9 -9 -9 -9 -9 -10 -10 -10 -10 -10 -10 -10 -11 -12 -12 -13
3 3 4 4 4 2 -1 -2 -3 -5 -6 -6 -6 -6 -7 -8 -7 -6 -5 -4 -4 -3 -3 -4 -5 -5 -6 -6 -6 -7 -7 -7 -8 -9 -9 -10 -10 -10 -10 -10 -10 -10 -10 -10 -11 -11 -12 -12 -12 -12 -12 -13 -13 -13
2 3 4 4 4 0 -1 -2 -2 -3 -5 -5 -4 -5 -6 -6 -5 -7 -6 -4 -5 -6 -7 -8 -8 -8 -8 -8 -8 -8 -8 -8 -8 -9 -9 -10 -10 -11 -11 -10 -10 -11 -11 -12 -12 -12 -12 -13 -14 -15 -15 -15 -15 -16
4 4 4 4 2 0 -2 -2 -3 -3 -4 -4 -3 -4 -5 -5 -5 -6 -6 -6 -7 -7 -8 -8 -9 -9 -9 -9 -9 -8 -8 -8 -8 -8 -9 -10 -11 -11 -11 -12 -12 -12 -12 -12 -13 -14 -14 -15 -15 -16 -17 -17 -18 -17
3 4 4 4 -0 -1 -2 -2 -2 -3 -2 -2 -3 -3 -6 -8 -7 -7 -6 -8 -8 -8 -8 -8 -9 -9 -9 -10 -11 -11 -11 -11 -11 -11 -11 -11 -11 -12 -12 -13 -13 -13 -14 -14 -15 -15 -16 -17 -16 -16 -16 -17 -17 -18
3 3 1 -0 -2 -3 -1 -2 -1 -1 -3 -3 -3 -4 -6 -6 -6 -5 -8 -7 -8 -8 -9 -9 -9 -10 -10 -10 -10 -11 -11 -11 -12 -13 -13 -14 -15 -15 -15 -15 -15 -15 -15 -16 -16 -17 -17 -17 -16 -17 -17 -17 -18 -18
2 -4 -6 -5 -3 -6 -6 -6 -2 -2 -3 -3 -4 -5 -6 -7 -7 -8 -8 -9 -8 -8 -8 -9 -10 -10 -10 -11 -11 -12 -12 -13 -13 -14 -14 -14 -15 -16 -16 -16 -16 -16 -16 -17 -17 -16 -17 -17 -17 -17 -17 -17 -18 -18
-3 -6 -6 -7 -6 -4 -6 -8 -6 -5 -7 -7 -7 -8 -9 -7 -10 -11 -10 -9 -9 -10 -11 -10 -10 -11 -12 -13 -13 -13 -13 -13 -13 -14 -15 -15 -16 -16 -16 -17 -17 -17 -16 -16 -17 -17 -17 -17 -17 -17 -18 -18 -18 -18
-6 -7 -6 -7 -8 -5 -7 -8 -9 -9 -9 -10 -10 -11 -12 -12 -12 -12 -9 -11 -12 -12 -15 -14 -12 -12 -12 -13 -13 -14 -15 -14 -14 -15 -16 -15 -15 -16 -17 -17 -16 -17 -16 -16 -16 -17 -17 -17 -17 -18 -18 -18 -18 -19
-8 -9 -6 -7 -6 -7 -10 -10 -8 -9 -11 -10 -11 -14 -13 -13 -14 -11 -10 -12 -11 -13 -12 -11 -11 -12 -13 -15 -15 -15 -14 -14 -14 -16 -16 -16 -16 -16 -16 -16 -17 -17 -17 -17 -17 -17 -17 -17 -18 -18 -18 -18 -18 -19
-9 -9 -10 -14 -13 -11 -14 -14 -14 -13 -10 -9 -12 -15 -14 -14 -11 -11 -12 -13 -13 -12 -12 -12 -12 -13 -13 -14 -15 -15 -15 -15 -15 -15 -16 -16 -17 -17 -17 -17 -17 -17 -17 -17 -17 -17 -17 -18 -18 -18 -18 -18 -19 -19
-12 -13 -12 -16 -15 -14 -13 -15 -12 -10 -11 -13 -16 -14 -12 -12 -15 -13 -14 -13 -12 -12 -14 -15 -15 -14 -14 -15 -15 -14 -15 -15 -15 -19 -19 -18 -19 -17 -17 -17 -18 -18 -18 -18 -18 -18 -18 -18 -18 -18 -19 -19 -19 -19
-12 -12 -15 -18 -16 -14 -16 -15 -15 -17 -14 -14 -12 -11 -13 -14 -14 -14 -13 -12 -12 -13 -13 -13 -14 -14 -14 -15 -16 -16 -16 -16 -16 -17 -18 -18 -17 -17 -17 -18 -18 -18 -18 -18 -18 -18 -19 -19 -19 -19 -19 -19 -20 -20
-12 -14 -15 -14 -14 -14 -16 -20 -18 -17 -20 -18 -19 -17 -16 -15 -13 -13 -13 -12 -12 -13 -13 -14 -14 -14 -14 -15 -15 -16 -16 -16 -16 -16 -16 -17 -17 -18 -18 -18 -19 -19 -19 -19 -19 -19 -19 -19 -19 -19 -20 -20 -20 -20
-16 -17 -14 -13 -13 -16 -18 -20 -20 -18 -20 -17 -18 -22 -19 -17 -17 -16 -15 -14 -14 -13 -13 -13 -13 -13 -14 -14 -15 -15 -15 -16 -16 -17 -17 -18 -18 -18 -19 -19 -19 -19 -19 -19 -20 -20 -20 -20 -20 -20 -20 -20 -21 -21
-14 -15 -14 -13 -13 -14 -16 -15 -15 -15 -18 -17 -18 -21 -21 -18 -16 -16 -15 -14 -13 -12 -12 -13 -13 -13 -14 -15 -15 -16 -16 -17 -17 -17 -18 -18 -18 -19 -19 -19 -19 -20 -20 -20 -20 -20 -20 -20 -21 -21 -21 -21 -21 -21
Height
647 641 634 629 626 624 622 620 619 620 622 626 635 643 649 658 667 676 684 691 697 701 699 695 696 702 710 717 722 727 737 739 740 739 736 735 735 724 719 714 714 715 719 722 726 725 716 694 694 696 694 690 690 681
637 629 624 620 616 613 611 609 609 609 609 614 624 632 640 647 658 670 676 683 692 700 699 697 694 695 695 700 712 719 714 721 724 728 732 727 729 732 718 714 716 713 708 704 706 700 695 695 694 693 692 688 686 684
626 622 617 612 608 604 602 600 599 599 602 607 616 625 633 641 650 661 668 675 687 695 697 698 693 695 698 702 704 713 714 712 717 715 723 722 721 720 718 714 706 707 705 704 705 694 693 694 695 701 700 695 689 685
622 617 611 605 600 596 592 591 590 592 595 600 608 619 629 637 645 653 661 669 678 686 689 693 692 693 694 698 700 703 704 709 713 715 717 721 714 714 713 707 706 702 702 700 699 693 695 688 699 702 699 694 689 682
619 613 607 599 592 586 583 581 581 584 588 591 603 615 626 635 641 651 661 669 675 680 686 689 687 687 689 694 697 700 703 709 712 711 717 713 714 711 715 713 706 704 701 702 695 714 715 708 705 706 704 699 695 692
619 612 604 596 587 579 574 573 574 578 583 590 601 613 625 635 641 651 665 672 674 677 682 686 682 682 686 690 694 697 701 705 709 709 713 712 711 708 712 708 710 710 712 715 713 714 713 711 708 709 707 704 701 699
621 613 605 595 585 574 565 563 570 575 582 589 601 614 627 637 645 653 657 660 671 678 681 685 680 679 682 689 692 695 698 700 704 707 708 708 708 707 713 713 718 719 720 719 717 715 708 709 709 711 709 706 705 705
622 617 608 599 588 577 565 563 571 579 586 592 603 619 631 642 651 654 653 658 671 676 679 687 687 682 680 686 692 696 697 700 701 706 708 707 709 709 709 724 724 726 724 720 723 721 719 712 711 712 713 705 706 704
624 620 614 608 599 588 583 581 584 589 595 602 614 628 638 648 652 657 662 668 670 675 679 684 682 675 680 684 689 696 694 693 700 702 704 702 706 713 731 732 732 733 733 730 725 719 717 714 715 716 714 711 711 713
627 623 620 615 610 605 601 596 597 601 606 613 624 633 642 648 653 661 667 671 674 675 677 677 681 675 681 682 686 688 689 691 693 699 702 706 727 738 740 740 739 737 735 730 725 719 720 719 721 720 718 717 715 716
630 628 624 620 617 616 614 614 614 616 619 623 629 634 645 651 656 663 668 671 672 673 678 677 677 674 680 676 682 689 686 695 697 700 697 713 728 741 744 743 743 741 738 734 732 727 727 727 727 723 723 722 721 722
633 631 628 626 624 623 622 622 623 623 626 629 633 644 651 659 661 661 668 672 668 671 677 672 676 677 680 680 681 690 688 693 692 711 714 735 745 749 747 746 745 742 739 737 735 733 733 731 729 728 729 730 728 730
636 634 632 631 628 628 627 629 629 630 633 636 643 658 662 679 688 689 681 679 679 687 687 681 677 680 680 680 684 684 695 706 718 728 744 751 751 750 750 748 747 746 744 742 741 741 739 738 736 735 737 737 736 737
639 637 636 636 634 632 633 632 632 633 635 655 669 693 701 709 703 703 701 698 697 696 693 689 682 685 691 692 701 696 719 717 730 743 752 758 757 756 755 754 752 752 750 749 749 747 746 745 744 744 744 745 744 746
643 641 638 638 640 639 638 639 639 639 657 678 687 708 711 713 711 710 709 705 702 699 693 685 691 694 703 710 717 715 725 740 746 753 758 762 762 761 759 758 757 756 755 754 754 753 753 752 751 751 753 754 752 752
642 643 643 640 640 642 642 641 644 653 675 692 709 713 717 714 713 713 711 707 704 702 695 695 698 707 718 724 730 742 739 750 758 763 765 765 765 764 763 762 761 760 760 759 759 760 760 760 760 760 761 761 761 761
643 645 645 644 643 641 642 646 657 676 694 707 722 724 726 724 724 721 719 714 710 703 704 708 717 726 727 734 749 754 757 761 765 768 770 770 769 769 768 767 767 766 765 765 765 766 766 767 766 766 767 770 769 770
644 645 643 643 643 644 647 656 674 693 714 724 726 728 727 728 728 726 722 716 711 709 714 722 728 738 744 745 755 762 766 770 772 774 775 775 775 774 774 774 773 773 772 772 772 772 773 773 773 774 776 777 778 780
645 644 643 642 642 647 662 678 687 711 725 728 729 729 730 731 729 727 723 719 717 717 721 733 744 752 760 762 764 768 771 773 777 779 781 781 780 780 779 779 779 778 778 778 778 778 779 780 780 781 782 784 784 787
646 645 644 644 645 654 675 690 695 709 724 729 728 729 731 732 731 731 728 724 724 729 744 758 768 772 770 770 771 773 775 777 778 781 783 784 784 784 783 783 783 783 783 783 784 784 785 785 786 787 788 789 790 792
647 647 648 647 652 663 682 695 705 713 722 725 728 729 733 734 734 734 733 733 737 753 766 773 775 776 775 775 776 776 778 778 779 780 784 787 788 787 787 788 787 787 788 789 789 791 792 793 794 794 794 794 796 797
648 648 649 651 662 676 689 697 703 711 716 723 727 729 738 744 744 743 743 749 765 775 775 777 779 779 780 781 782 782 783 783 784 786 788 789 790 791 792 792 792 793 794 795 795 796 797 798 797 798 798 799 800 801
649 650 654 659 675 689 702 702 704 708 719 725 727 734 742 747 748 748 762 772 779 782 782 782 783 784 785 786 787 788 788 788 790 792 793 794 795 796 796 796 797 797 798 800 800 800 801 802 802 802 803 803 804 805
652 661 673 681 682 705 705 712 706 713 720 725 731 743 750 753 755 764 775 781 783 784 785 786 787 788 790 791 792 793 794 794 795 797 798 798 799 801 801 801 801 801 802 802 803 804 805 805 806 806 807 807 807 808
666 686 685 696 695 700 714 725 724 724 737 741 745 755 759 755 768 779 783 784 785 787 788 789 789 791 793 797 798 798 798 798 798 800 801 801 802 804 805 805 805 805 805 806 806 806 807 808 809 809 809 810 810 810
688 697 697 702 709 704 719 728 737 739 744 752 757 761 763 769 779 788 778 784 786 788 790 790 791 793 795 796 797 799 800 800 800 801 804 804 804 804 805 806 807 808 807 807 808 808 808 809 810 810 810 811 811 811
702 709 704 708 706 711 728 733 731 739 752 754 761 770 772 784 794 783 782 784 785 787 788 789 790 791 794 797 798 799 800 800 800 802 803 804 804 805 805 806 806 807 807 808 808 809 809 809 810 810 811 811 811 811
709 712 717 729 728 728 744 751 755 760 751 751 760 782 783 786 780 781 783 784 785 787 788 790 792 793 795 797 799 800 801 802 803 804 805 806 806 806 806 807 807 807 807 807 808 808 809 809 810 810 811 810 810 809
720 723 724 745 742 747 753 760 756 753 756 760 773 778 777 779 783 783 785 786 787 788 790 793 796 797 798 800 801 802 803 804 805 807 808 808 808 808 808 808 808 808 808 809 809 809 810 810 810 810 809 809 808 807
726 725 738 755 758 761 767 762 763 762 761 761 763 770 778 784 786 786 788 789 790 792 794 795 797 799 800 801 802 803 804 805 805 806 807 807 807 807 808 808 808 809 809 809 809 809 809 809 808 808 807 807 806 805
725 732 743 754 764 766 766 765 764 764 766 770 772 778 783 787 789 791 791 792 793 794 796 798 799 800 801 801 802 803 803 804 804 804 805 806 807 807 808 808 808 808 809 808 808 808 808 807 807 806 806 805 804 803
736 744 746 758 766 767 767 771 774 778 782 781 786 788 789 790 797 794 794 795 796 797 798 799 799 800 801 801 802 802 803 804 805 806 807 807 808 808 808 808 808 808 808 807 807 806 806 805 805 804 803 802 801 800
740 742 745 752 761 766 767 767 772 780 786 789 792 794 795 792 795 794 794 795 797 797 798 799 800 800 801 802 802 803 804 805 806 807 807 807 808 807 807 807 807 806 806 805 805 804 804 803 802 801 800 799 798 797
Wind_Speed
38 41 43 38 30 26 27 26 25 28 30 38 35 34 37 40 42 41 30 37 20 2 3 12 11 10 9 11 6 7 4 4 4 6 4 3 3 4 3 2 4 7 6 5 5 4 8 0 2 1 6 4 7 12
41 41 30 26 25 25 25 24 26 26 23 37 35 35 32 42 42 42 13 33 33 4 1 5 11 15 31 25 10 10 5 6 6 3 4 3 4 1 5 3 2 4 6 4 8 6 2 3 4 8 7 12 13 16
37 25 24 23 23 21 21 20 20 20 19 33 34 35 31 30 37 41 17 32 19 3 1 1 5 12 10 22 21 6 6 4 5 3 3 3 3 4 4 5 3 3 3 3 0 3 7 5 3 11 13 14 16 16
22 20 21 22 23 23 23 21 18 17 24 31 34 35 32 29 25 33 23 28 15 3 2 3 11 5 22 11 16 16 4 6 2 2 1 2 2 3 3 1 3 2 3 3 5 7 11 5 11 15 17 14 17 20
19 21 23 25 23 21 20 15 17 16 18 31 35 35 33 28 28 30 25 24 21 4 3 3 4 10 20 22 12 6 8 6 4 3 1 2 1 2 0 0 3 3 3 3 5 2 3 8 13 13 14 14 15 15
19 22 21 22 21 18 14 11 11 17 16 32 35 37 33 30 39 23 4 20 18 7 2 3 2 3 19 19 19 10 6 9 5 3 2 3 3 2 2 2 1 2 4 4 1 7 7 7 8 11 10 13 12 11
21 26 29 26 25 21 16 13 14 17 23 29 39 39 37 38 29 3 3 16 32 8 2 1 1 1 10 6 3 5 5 2 4 2 3 2 2 4 2 4 3 6 8 8 6 8 3 2 5 9 9 11 9 8
18 26 30 38 37 26 21 20 20 24 27 30 46 39 41 36 21 3 8 26 28 7 2 2 2 1 6 3 3 2 3 3 3 2 1 3 3 2 3 4 6 10 11 4 12 10 9 10 5 8 7 10 11 12
14 18 17 29 39 37 28 25 28 32 32 40 44 42 28 7 2 7 26 22 7 4 4 3 3 2 3 2 3 3 5 3 3 3 3 3 3 1 6 7 9 10 8 11 13 11 8 7 8 8 8 10 8 8
14 20 24 17 25 36 40 38 36 41 44 41 27 5 3 6 34 23 6 2 1 1 1 2 1 3 1 2 2 3 1 3 2 1 3 2 3 9 9 8 8 9 10 11 10 9 11 9 8 6 7 6 6 7
16 14 16 23 19 25 23 23 25 27 18 6 2 4 30 22 5 2 3 2 2 3 1 1 1 2 0 3 2 2 2 2 3 2 2 2 3 5 9 8 8 9 9 8 8 7 7 6 6 6 7 8 9 11
17 14 17 20 21 25 23 16 14 17 11 10 17 15 6 5 3 4 2 2 2 2 2 1 2 1 2 1 3 1 2 1 2 3 3 2 3 7 9 9 10 10 9 9 11 9 8 9 10 9 9 9 15 16
16 15 16 15 15 14 19 22 22 19 20 10 6 4 3 5 8 4 3 3 3 4 4 3 3 2 1 3 3 2 3 2 2 3 3 3 6 7 8 7 9 10 11 11 11 13 14 16 18 16 15 17 19 20
19 15 14 18 15 15 15 12 8 7 13 5 5 7 4 4 4 3 2 2 2 3 4 2 2 3 3 4 3 4 3 3 3 2 2 3 6 7 7 6 7 9 11 11 12 15 16 18 18 20 21 20 22 22
13 20 15 13 14 17 16 13 9 11 7 4 5 5 4 1 1 2 2 2 3 4 2 0 3 3 4 4 3 3 3 4 3 2 2 2 4 5 6 8 8 8 8 10 13 13 15 17 19 21 22 22 23 23
3 7 19 15 9 9 9 16 16 6 4 4 6 3 2 2 4 3 4 3 5 5 1 3 3 4 6 3 5 4 2 2 2 1 1 2 4 5 5 7 8 11 12 14 16 16 17 17 18 21 23 24 24 25
5 4 8 7 15 16 9 7 7 6 4 4 3 2 2 2 1 3 3 4 4 3 3 3 5 4 3 3 3 3 2 2 3 3 4 6 6 6 6 9 10 12 14 15 16 16 17 17 19 21 19 20 22 23
4 8 8 3 4 7 7 10 5 5 7 4 4 3 2 1 2 2 3 3 2 2 2 3 3 4 3 3 2 2 3 5 5 5 6 6 9 11 11 11 12 13 14 15 15 16 16 15 16 15 16 15 17 17
5 9 6 9 7 6 4 6 6 5 4 1 1 1 1 1 1 3 4 4 6 6 4 3 5 3 3 3 4 5 4 3 3 4 6 11 11 11 11 12 13 14 15 14 14 14 14 16 14 12 12 12 14 13
6 9 8 6 5 5 5 3 5 5 3 2 1 2 2 1 3 3 6 6 5 3 6 5 3 1 1 2 3 4 5 5 6 6 5 6 9 11 12 10 10 10 12 13 14 13 13 14 15 13 12 12 13 12
5 7 8 9 7 11 4 3 4 3 4 2 1 1 2 2 4 4 5 5 5 4 4 4 4 5 10 10 10 9 7 6 3 2 3 4 7 9 9 9 10 10 11 10 11 12 13 12 10 10 12 13 13 13
3 6 4 6 5 4 4 5 4 4 3 3 2 2 3 2 3 4 2 7 4 4 3 2 3 4 6 6 9 11 10 12 12 12 10 7 3 5 7 7 8 9 10 9 9 10 10 9 11 14 16 16 16 15
4 4 5 5 6 5 3 3 3 2 3 2 2 3 3 2 2 3 4 4 3 4 5 6 9 12 13 11 12 12 11 11 10 10 10 10 10 10 10 10 9 9 9 8 8 10 12 13 13 15 15 15 15 14
5 5 5 3 4 3 2 3 2 3 3 3 3 3 2 1 1 3 4 2 1 4 5 7 8 6 8 9 6 9 9 10 12 10 7 9 9 9 8 8 10 10 8 8 9 11 11 11 11 11 11 11 10 10
6 7 4 5 3 5 4 3 3 4 3 2 3 2 1 2 3 3 2 2 1 1 1 3 5 5 4 3 5 6 6 6 8 8 6 7 9 8 7 7 8 8 7 8 9 9 8 8 8 7 7 6 6 5
7 4 4 2 3 4 1 4 2 3 3 3 2 1 2 3 4 2 2 3 2 2 3 4 5 4 4 5 4 4 5 7 6 7 4 3 3 4 5 4 3 4 5 5 7 7 6 6 5 5 5 4 2 1
5 4 3 4 2 4 4 3 3 4 4 3 2 2 3 4 2 1 2 1 2 4 7 7 5 7 8 8 9 8 6 6 8 9 8 7 6 4 2 2 3 3 3 3 2 2 3 4 3 3 2 1 0 1
3 4 5 4 5 4 5 3 3 2 2 2 3 4 4 4 3 1 1 4 17 16 15 15 14 14 14 13 13 15 15 15 15 12 11 10 8 8 7 7 6 5 3 3 2 2 2 1 2 2 2 2 2 3
4 2 4 6 5 5 5 3 2 2 2 2 3 2 3 2 1 2 5 14 16 18 19 17 15 15 15 11 7 9 12 7 5 4 3 2 3 0 3 3 3 3 3 3 2 2 1 0 2 4 4 4 5 6
2 2 4 4 5 5 2 1 1 1 2 2 2 3 3 3 6 11 13 12 11 13 14 15 14 8 8 5 6 6 6 4 5 3 1 1 2 4 4 2 2 1 1 1 1 2 3 4 5 5 5 6 7 8
2 3 4 4 4 1 1 2 1 4 3 4 4 4 3 2 5 8 5 6 11 14 15 12 8 7 6 7 3 3 1 1 1 2 3 4 5 4 2 1 1 1 1 2 3 3 4 4 4 5 6 7 8 10
3 3 4 5 2 2 2 2 2 3 3 3 3 2 3 3 2 3 3 7 11 11 8 8 5 2 5 1 1 2 2 6 6 5 4 3 2 1 1 1 2 2 3 4 4 3 4 5 6 7 9 9 10 11
3 3 4 4 3 1 2 3 4 3 3 3 2 0 1 2 4 3 3 7 7 4 5 8 6 6 6 6 6 8 8 6 4 4 3 2 2 2 2 1 2 2 3 3 3 4 4 5 7 8 9 11 11 12
Wind_Direction
307 305 303 298 290 282 284 277 272 259 252 227 226 221 220 214 211 201 206 197 197 171 238 204 176 161 166 177 175 153 116 179 171 189 208 189 189 232 243 205 177 176 195 189 211 241 267 109 136 345 334 281 271 308
310 311 306 305 297 291 287 276 268 263 263 215 216 211 218 211 208 200 198 192 193 194 321 235 217 180 184 176 171 169 184 152 173 160 194 190 202 200 208 233 122 195 201 191 197 206 303 17 15 303 284 290 305 308
317 310 315 311 305 299 292 284 272 256 238 210 208 204 206 201 202 194 172 164 163 129 157 302 192 198 188 198 191 168 223 167 182 185 160 192 209 162 175 224 210 242 181 226 320 252 263 288 289 15 337 318 312 306
329 326 320 318 312 301 291 280 266 251 221 214 200 196 192 193 193 170 156 169 152 111 139 194 223 208 212 203 191 206 146 89 96 156 157 158 201 194 200 235 212 222 157 232 262 289 326 297 11 358 339 337 343 336
346 346 336 325 317 300 293 278 249 236 216 197 187 188 184 185 183 139 148 153 147 125 152 187 180 216 205 204 208 208 165 177 234 220 112 237 186 163 20 54 230 198 229 240 282 19 310 305 326 348 341 341 349 354
14 10 7 350 347 335 302 261 225 206 200 181 182 178 170 166 139 126 120 182 158 133 118 148 284 168 195 199 209 218 195 201 203 197 193 189 239 164 184 235 334 61 64 55 259 320 293 290 303 8 342 344 351 12
26 30 16 16 6 359 331 221 189 175 173 176 171 165 163 156 141 124 157 159 184 180 103 73 290 235 167 165 154 193 179 192 182 180 188 186 242 180 177 245 43 2 356 344 5 348 258 11 328 355 352 358 1 23
39 33 37 28 31 30 48 124 143 143 145 150 154 157 152 147 146 77 35 151 155 102 96 122 233 161 164 142 134 150 149 136 143 156 94 181 137 178 225 57 26 15 351 338 352 334 303 297 357 5 357 25 14 22
45 25 35 27 40 58 69 97 122 132 130 137 142 139 125 109 92 97 128 134 113 113 158 166 167 137 129 114 123 181 192 155 111 165 197 164 150 152 36 18 9 4 349 321 322 325 0 8 1 10 9 30 33 34
44 32 33 38 53 58 63 75 115 119 111 107 107 73 103 126 125 118 61 73 61 21 81 165 104 150 160 161 122 135 346 118 144 169 100 83 86 75 34 19 3 345 336 336 338 346 349 357 350 22 30 35 48 55
50 42 28 39 70 62 79 82 89 103 103 56 84 76 115 113 95 76 109 154 152 159 160 124 139 158 313 108 107 13 119 119 141 139 190 88 74 22 358 7 4 350 347 350 344 7 10 14 359 37 51 54 63 67
50 55 53 59 74 75 83 114 102 90 77 94 109 90 55 32 50 89 85 93 52 56 1 28 65 79 85 137 108 148 90 92 80 25 68 75 40 15 360 3 9 4 8 20 23 30 34 44 48 58 59 64 71 74
54 50 53 63 55 59 74 98 101 93 110 88 55 68 31 349 48 50 24 32 50 357 348 351 62 77 43 41 86 149 99 90 87 50 75 51 16 25 17 18 31 32 38 44 44 52 59 61 60 66 69 67 75 72
51 58 62 63 57 64 99 108 99 65 53 56 47 39 65 8 38 32 347 358 343 327 337 334 59 47 356 57 350 75 37 54 79 80 89 22 16 35 43 49 60 56 54 55 56 60 62 66 66 65 68 71 76 73
60 56 59 63 75 75 92 113 134 70 59 63 44 52 61 313 349 331 303 269 341 304 310 154 56 50 26 72 31 95 58 68 45 94 97 20 41 55 60 56 63 64 63 66 64 63 63 67 69 69 67 72 75 75
120 66 40 37 63 105 100 77 59 74 64 69 46 52 339 44 352 359 352 352 349 337 312 26 71 64 47 49 49 32 83 114 145 92 35 41 56 56 64 70 65 68 72 72 69 68 70 70 74 78 73 71 72 74
63 67 32 57 55 75 89 80 57 51 65 55 42 44 48 72 314 324 336 330 321 339 59 56 55 52 62 62 62 24 78 98 104 76 50 38 40 38 43 53 52 58 60 59 69 70 72 73 76 74 70 67 73 74
78 20 13 37 128 61 46 43 74 66 67 43 74 354 14 34 336 331 316 318 323 67 57 75 93 57 51 83 101 97 85 76 67 62 50 46 51 51 56 63 60 64 68 67 67 67 66 68 71 71 77 77 76 74
45 16 72 73 75 84 70 43 60 85 66 78 46 357 31 316 317 357 353 1 39 52 93 62 63 56 55 39 87 96 91 90 92 77 64 53 55 59 62 65 67 65 66 67 69 70 67 63 65 70 76 82 84 83
42 64 90 81 68 81 75 52 73 88 79 110 50 30 72 19 342 357 24 28 43 57 51 49 45 35 57 47 92 108 111 117 116 98 74 57 58 65 59 68 71 74 76 71 66 69 70 66 58 64 76 83 88 82
102 86 100 75 66 70 87 97 63 98 131 97 164 172 81 26 27 19 28 7 55 36 64 55 66 64 66 64 73 90 80 104 90 103 122 98 68 74 70 66 71 72 75 73 79 71 71 73 73 80 88 85 90 93
70 80 87 57 76 67 79 32 113 145 99 123 134 70 56 34 8 18 28 37 59 29 38 71 75 83 74 60 63 76 91 93 89 88 84 88 77 65 56 56 82 82 77 76 88 92 85 86 95 98 100 100 103 102
85 53 53 51 73 66 112 159 91 101 99 108 75 61 42 48 37 21 71 50 69 48 75 79 81 83 87 81 81 71 71 87 85 82 82 83 79 74 75 68 76 90 91 75 92 98 99 102 103 105 107 106 105 102
55 51 51 67 74 126 68 35 59 72 68 69 71 76 45 68 50 61 79 65 79 95 102 110 113 99 79 70 64 65 70 92 94 85 84 97 90 74 78 79 76 77 90 111 110 111 114 112 115 114 112 109 104 99
74 348 68 36 13 85 73 48 38 64 84 76 89 62 12 63 75 69 113 155 125 118 64 91 101 106 116 110 94 78 90 122 118 103 74 114 117 113 96 88 86 83 95 113 117 127 127 133 135 130 127 120 114 109
73 341 57 56 1 89 130 92 104 127 106 74 71 53 46 83 73 96 144 165 167 168 176 163 137 114 87 100 124 103 88 112 115 107 95 110 99 129 139 130 117 83 95 114 120 129 131 135 141 146 147 148 145 144
72 18 50 29 44 87 71 51 55 82 81 115 155 81 73 72 118 219 132 124 132 134 131 129 114 119 125 117 106 102 102 102 104 107 105 93 84 93 119 142 138 109 108 116 112 136 145 146 150 157 159 160 228 325
98 35 95 343 59 31 105 72 63 85 94 79 82 53 108 145 139 142 85 114 126 120 107 101 108 116 115 113 115 116 109 105 100 95 85 75 74 76 83 95 98 87 86 105 109 115 146 181 215 222 236 261 275 316
51 14 81 43 49 48 39 66 83 49 18 92 107 119 115 72 16 98 115 139 136 126 115 112 108 116 115 114 108 126 136 121 56 58 36 348 340 148 131 130 134 110 95 84 74 86 96 231 272 256 256 267 283 296
23 42 88 64 60 42 310 28 40 325 15 62 89 102 77 56 52 106 129 138 135 129 132 133 135 136 142 139 137 164 195 242 291 293 217 267 297 170 167 167 176 192 212 264 269 273 258 281 281 293 283 288 296 303
66 75 78 60 77 349 214 292 83 84 44 49 35 74 85 93 72 56 78 129 139 141 142 144 141 143 137 140 135 157 195 190 51 73 112 122 128 143 157 158 181 197 224 299 301 283 276 287 297 301 301 301 301 304
45 77 119 104 159 250 61 59 71 75 9 46 14 35 31 57 70 350 98 147 151 154 162 167 153 173 175 165 128 130 126 136 126 118 114 115 124 152 207 242 258 268 290 304 307 305 301 297 302 306 308 309 309 310
71 57 67 102 94 159 242 92 39 82 41 56 17 50 140 137 159 194 160 188 200 198 171 152 134 124 122 117 110 117 125 127 122 114 103 89 66 41 20 7 353 351 346 341 335 328 325 323 320 318 317 316 315 315